Location: Arrodets-la-Barthe
(43.0306°N, 0.2829°E)
Time: 15:58:21
(UTC+00:00)

Cosmos 2333 Rocket - Pass Details

Date: 24 October 2021
Orbit: 837 x 865 km, 70.8° (Epoch: 07 December)

Event Time Altitude Azimuth Distance (km) Brightness Sun altitude
Rises 18:19:22 0° 169° (S) 3,379 5.3 -14.8°
Reaches altitude 10° 18:22:08 10° 158° (SSE) 2,453 4.4 -15.3°
Maximum altitude 18:26:44 27° 103° (ESE) 1,589 3.1 -16.1°
Enters shadow 18:27:31 26° 89° (E) 1,623 3.1 -16.3°
